sat.trackr.live / text

‹ back to catalog

STARLINK-5965

NORAD 56915 · 2023-083AR

PAYLOAD ACTIVE UNKNOWN

§ Identity

Operator
Country
US
Launch date
2023-06-12
Launch site
AFETR
Launch vehicle
Mass (kg)
RCS (m²)

Purposes: comms

External: N2YO · Heavens-Above · Gunter

§ Orbital elements

Epoch: 2026-05-24T21:32:47.084352Z

Period
94.27 min
Inclination
43.0022°
Eccentricity
0.0000977
Mean motion
15.27578811 rev/d
Perigee alt
482.4 km
Apogee alt
483.7 km
Semi-major
6,861.2 km
B*
-5.6094e-6
RAAN
0.2640°
Arg perigee
265.8799°
Mean anomaly
94.1941°
Rev number
16,345

§ Raw data

STARLINK-59651 56915U 23083AR  26144.89776718 -.00000416  00000+0 -56094-5 0  99932 56915  43.0022   0.2640 0000977 265.8799  94.1941 15.27578811163452

JSON: /api/v1/satellites/56915 · /tle

For live sub-satellite position, see the globe view (requires WebGL).

§ Visibility from observer

Set your observer location to see the next 7 days of passes ≥ 10°. The values pass through the URL so the page stays shareable.

No JS? Fill the form by hand. The geolocation button needs JavaScript.